[[{"header":{"parameterUnit":"m.s-1","parameterCategory":1,"la1":30.2991,"la2":30.254,"lo1":-89.0895,"lo2":-89.0444,"dy":0.0017,"dx":0.0017,"nx":28,"ny":28,"refTime":"2024-07-29T21:00:00:Z","depth":0,"parameterNumber":2,"parameterNumberName":"U-component_of_WINDS"},"data":[0,0,0,0,0,0,0,0,0,0,0,0,0,0,0,0,0,0,0,0,0,0,0,0,0,0,0,0,0,0,0,0,0,0,0,0,0,0,0,0,0,0,0,0,0,0,0,0,0,0,0,0,0,0,0,0,0,0,4.7062,4.7063,0,4.7189,4.719,4.7192,4.7084,4.708,4.7075,4.7071,4.7206,4.7214,4.7222,0,0,0,0,0,0,0,0,0,0,0,0,0,4.6728,4.6735,4.7062,4.7063,4.7065,4.7189,4.719,4.7192,4.7085,4.708,4.7074,4.7069,4.7204,4.7213,4.7222,0,0,0,0,0,0,0,0,0,0,0,0,0,4.6866,4.6737,4.7061,4.7026,4.7024,4.7188,4.7191,4.7193,4.7086,4.7079,4.7073,4.7066,4.7201,4.7212,4.7224,4.7431,0,0,4.7259,4.7264,0,0,0,0,0,0,0,0,4.6859,4.6879,4.703,4.7029,4.7027,4.7114,4.7122,4.7273,4.7088,4.7063,4.7071,4.7063,4.7181,4.7194,4.7233,4.7437,4.7443,4.726,4.7267,4.7272,4.7276,0,0,0,0,0,0,0,4.6849,4.6873,4.7112,4.7032,4.7031,4.7005,4.7017,4.715,4.7159,4.7065,4.7057,4.7073,4.7179,4.7222,4.7235,4.7445,4.726,4.727,4.7278,4.7282,4.7822,4.7828,0,0,0,0,0,0,4.6843,4.6865,4.7108,4.7116,4.6924,4.7016,4.703,4.7093,4.7157,4.716,4.7079,4.7068,4.7205,4.7222,4.724,4.7484,4.7272,4.7283,4.729,4.7814,4.7823,4.7831,0,0,0,0,0,0,4.6836,4.6865,4.7103,4.6989,4.7017,4.7029,4.7101,4.7099,4.7141,4.7167,4.7169,4.7121,4.7201,4.7223,4.7383,4.7487,4.7288,4.7299,4.7806,4.7817,4.7827,4.7975,0,0,0,0,0,0,4.6827,4.6864,4.6942,4.6991,4.7023,4.7244,4.7107,4.7106,4.7161,4.7148,4.7207,4.7211,4.7197,4.7366,4.7394,4.7499,4.7308,4.7796,4.7811,4.7824,4.7961,4.799,4.8015,0,0,0,0,0,4.6815,4.6981,4.6947,4.6977,4.7121,4.725,4.7268,4.7248,4.717,4.7249,4.7265,4.7209,4.7471,4.7383,4.7414,4.7525,4.779,4.7807,4.7823,4.7949,4.7984,4.8014,0,0,0,0,0,0,4.6946,4.6987,4.6949,4.7135,4.719,4.7231,4.7331,4.7287,4.7366,4.735,4.7323,4.7337,4.7505,4.7531,4.7432,4.7727,4.7618,4.7641,4.7703,4.7737,4.7763,4.7753,4.7318,0,0,0,0,0,4.6996,4.7096,4.7126,4.7287,4.7316,4.7319,4.7374,4.7354,4.741,4.7433,4.7461,4.7519,4.7613,4.7677,4.7766,4.7964,4.7975,4.8056,4.8082,4.8104,4.8125,4.8229,4.8264,4.7885,4.7885,4.7885,0,0,4.7101,4.7136,4.7201,4.7314,4.7354,4.7458,4.7339,4.7456,4.7532,4.7451,4.7602,4.7625,4.7687,4.7866,4.7947,4.7893,4.8231,4.8125,4.8142,4.8151,4.8249,4.8285,4.8317,4.7896,4.7894,4.7893,0,0,4.7345,4.7382,4.7519,4.756,4.7621,4.7621,4.7654,4.7702,4.7713,4.7864,4.7804,4.7896,4.8061,4.8107,4.8152,4.8411,4.8361,4.8441,4.8581,4.8683,4.8712,4.8739,4.8829,4.8862,4.8461,4.8462,4.8462,0,4.7469,4.7622,4.7595,4.7714,4.7765,4.7694,4.7832,4.7874,4.7962,4.7999,4.7937,4.814,4.8178,4.8365,4.8428,4.8468,4.8504,4.8434,4.871,4.8736,4.876,4.8846,4.888,4.8471,4.847,4.8469,4.8468,0,4.777,4.7877,4.798,4.8064,4.8126,4.8255,4.8247,4.8315,4.8288,4.8295,4.8448,4.849,4.8585,4.8628,4.8605,4.8812,4.8776,4.8713,4.8603,4.8806,4.8886,4.8919,4.8484,4.8481,4.8478,4.8476,0,0,4.8101,4.8165,4.8204,4.8239,4.83,4.8383,4.8507,4.8598,4.8655,4.8718,4.8821,4.8961,4.8901,4.8952,4.8933,4.9023,4.9222,4.8948,4.8949,4.8996,4.9451,4.9497,4.9535,4.919,4.9196,4.9201,4.9444,0,4.8346,4.856,4.8538,4.8743,4.884,4.8773,4.8881,4.893,4.894,4.9024,4.9035,4.9134,4.9049,4.9079,4.9165,4.918,4.9313,4.9162,4.9285,4.929,4.927,4.9577,4.9627,4.9855,4.9476,4.9481,4.9485,0,4.866,4.8731,4.8944,4.8987,4.9027,4.9125,4.9204,4.9287,4.934,4.9341,4.9397,4.9361,4.9486,4.9374,4.9545,4.9443,4.9492,4.9507,4.9515,4.9525,4.9399,4.9594,4.9928,4.9961,4.9535,4.9531,4.9527,0,4.8878,4.9026,4.9172,4.9205,4.926,4.9329,4.9355,4.9402,4.9457,4.9528,4.9563,4.9648,4.9694,4.9761,4.9749,4.9669,4.9923,4.981,4.9926,4.9927,4.9982,4.9979,5.0327,5.0017,5.0016,5.0016,5.0015,0,4.9153,4.9285,4.927,4.936,4.9506,4.948,4.9626,4.9643,4.9685,4.9777,4.9725,4.9813,4.9792,4.988,4.9872,5.0013,5.0036,5.0039,5.0035,5.0043,5.0042,5.0074,5.0057,5.0025,5.0023,5.0021,5.002,0,4.942,4.9415,4.9569,4.9607,4.9619,4.9725,4.9758,4.9842,4.9846,4.9963,4.9989,4.9996,5.0096,5.0091,5.0205,5.0199,5.0373,5.0351,5.0354,5.0349,5.0464,5.0453,5.0844,5.0893,5.0553,5.0556,5.0559,0,4.9595,4.9695,4.9742,4.9799,4.9829,4.9922,4.9976,4.9954,5.0013,5.008,5.0157,5.0251,5.0325,5.0487,5.0503,5.0589,5.0568,5.0699,5.0581,5.0584,5.0568,5.0561,5.057,5.0722,5.0726,5.0729,5.0732,0,4.9905,4.9897,4.9977,5.0056,5.0123,5.0185,5.0241,5.0291,5.0274,5.0343,5.0443,5.05,5.0614,5.0708,5.079,5.0817,5.0772,5.0769,5.08,5.0808,5.0804,5.0806,5.0415,5.076,5.0757,5.0755,5.0753,5.0752,5.013,5.0215,5.026,5.0351,5.039,5.0443,5.0523,5.0536,5.0618,5.0708,5.069,5.0802,5.0851,5.0955,5.099,5.1077,5.103,5.1076,5.1087,5.1099,5.111,5.0792,5.1092,5.1092,5.1091,5.109,5.109,0,5.0436,5.0461,5.0544,5.0623,5.0694,5.0643,5.0702,5.0765,5.0864,5.0912,5.0985,5.1099,5.1189,5.1211,5.1297,5.1362,5.1344,5.1386,5.138,5.1386,5.1149,5.1112,5.1399,5.1399,5.1399,5.1399,5.1399,5.1399,5.0603,5.0742,5.074,5.0897,5.0922,5.1029,5.1067,5.1115,5.1153,5.1282,5.1355,5.1368,5.1406,5.1494,5.1574,5.1578,5.1612,5.1662,5.1658,5.1435,5.1404,5.1374,5.1339,5.167,5.167,5.1888,5.189,5.1891]},{"header":{"parameterUnit":"m.s-1","parameterCategory":1,"la1":30.2991,"la2":30.254,"lo1":-89.0895,"lo2":-89.0444,"dy":0.0017,"dx":0.0017,"nx":28,"ny":28,"refTime":"2024-07-29T21:00:00:Z","depth":0,"parameterNumber":3,"parameterNumberName":"V-component_of_WINDS"},"data":[0,0,0,0,0,0,0,0,0,0,0,0,0,0,0,0,0,0,0,0,0,0,0,0,0,0,0,0,0,0,0,0,0,0,0,0,0,0,0,0,0,0,0,0,0,0,0,0,0,0,0,0,0,0,0,0,0,0,1.1914,1.1914,0,1.196,1.1961,1.1961,1.1957,1.1956,1.1955,1.1955,1.2001,1.2003,1.2005,0,0,0,0,0,0,0,0,0,0,0,0,0,1.1819,1.1821,1.1914,1.1914,1.1915,1.196,1.1961,1.1961,1.1957,1.1956,1.1955,1.1954,1.2,1.2002,1.2005,0,0,0,0,0,0,0,0,0,0,0,0,0,1.1862,1.1821,1.1914,1.1918,1.1919,1.196,1.1961,1.1961,1.1957,1.1956,1.1955,1.1954,1.1999,1.2002,1.2005,1.2044,0,0,1.2014,1.2015,0,0,0,0,0,0,0,0,1.186,1.1866,1.1917,1.1918,1.1919,1.1952,1.1944,1.1989,1.1957,1.1943,1.1955,1.1953,1.1985,1.1989,1.2,1.2046,1.2048,1.2014,1.2016,1.2017,1.2018,0,0,0,0,0,0,0,1.1857,1.1864,1.1932,1.1918,1.1919,1.1917,1.1922,1.1953,1.1969,1.1944,1.1944,1.1949,1.1986,1.1997,1.2001,1.2049,1.2014,1.2016,1.2018,1.2019,1.2127,1.2128,0,0,0,0,0,0,1.1853,1.1861,1.1931,1.1933,1.1886,1.192,1.1925,1.1942,1.1969,1.1972,1.195,1.1949,1.1993,1.1998,1.2003,1.2049,1.2017,1.202,1.2021,1.2126,1.2127,1.2129,0,0,0,0,0,0,1.1851,1.1859,1.1929,1.1897,1.1906,1.1922,1.1942,1.1944,1.1956,1.1974,1.1976,1.1959,1.1992,1.1999,1.2033,1.2051,1.2021,1.2023,1.2124,1.2126,1.2128,1.2143,0,0,0,0,0,0,1.1848,1.1859,1.1874,1.1898,1.1908,1.196,1.1943,1.1945,1.1961,1.1959,1.1983,1.1986,1.1992,1.2029,1.2036,1.2054,1.2026,1.2123,1.2125,1.2127,1.2141,1.2145,1.2148,0,0,0,0,0,1.1845,1.1877,1.1875,1.1884,1.1928,1.1961,1.1966,1.1973,1.1962,1.1977,1.1989,1.1985,1.2048,1.2033,1.2041,1.206,1.2122,1.2125,1.2127,1.2139,1.2144,1.2148,0,0,0,0,0,0,1.1855,1.188,1.1878,1.1919,1.1938,1.196,1.198,1.1978,1.2,1.1998,1.2005,1.201,1.2045,1.2056,1.2039,1.2098,1.2083,1.2088,1.209,1.2094,1.2098,1.2095,1.2028,0,0,0,0,0,1.1862,1.1887,1.1907,1.1941,1.195,1.1963,1.1978,1.1981,1.2001,1.2009,1.2022,1.2041,1.2064,1.208,1.2103,1.2142,1.2146,1.2159,1.2162,1.2165,1.2169,1.2189,1.2194,1.2137,1.2137,1.2137,0,0,1.1877,1.1893,1.1909,1.1943,1.1958,1.1983,1.197,1.1997,1.2016,1.2013,1.2046,1.2057,1.2078,1.2114,1.2131,1.2124,1.2186,1.2169,1.2171,1.2173,1.2192,1.2198,1.2203,1.2139,1.2139,1.2138,0,0,1.1916,1.1931,1.1961,1.1976,1.1998,1.2006,1.2013,1.2035,1.2042,1.2076,1.2073,1.2095,1.2136,1.215,1.2163,1.2206,1.2203,1.2213,1.2232,1.2252,1.2256,1.226,1.2274,1.228,1.2216,1.2216,1.2216,0,1.1931,1.1969,1.1976,1.2003,1.2018,1.2016,1.2045,1.2059,1.2087,1.2097,1.2089,1.2139,1.2153,1.2193,1.2203,1.2214,1.2221,1.221,1.2255,1.2259,1.2263,1.2277,1.2282,1.2217,1.2217,1.2217,1.2217,0,1.1986,1.2013,1.2033,1.2061,1.2078,1.2106,1.2115,1.2132,1.2133,1.2141,1.2175,1.2191,1.2217,1.2226,1.2228,1.2265,1.226,1.2254,1.2239,1.2269,1.2282,1.2288,1.2219,1.2218,1.2218,1.2218,0,0,1.2034,1.2064,1.2072,1.2083,1.2107,1.2127,1.2154,1.2179,1.2192,1.2212,1.2234,1.2268,1.2261,1.2275,1.2279,1.2296,1.2327,1.2287,1.2287,1.2293,1.2368,1.2372,1.2378,1.2325,1.2326,1.2327,1.2366,0,1.2076,1.2124,1.213,1.2173,1.2196,1.2194,1.2217,1.2234,1.2242,1.2262,1.2271,1.2294,1.2285,1.2293,1.231,1.232,1.2342,1.2317,1.2345,1.2346,1.2339,1.2385,1.2391,1.2427,1.2371,1.2372,1.2372,0,1.2131,1.2151,1.2196,1.2215,1.2226,1.2247,1.2269,1.2289,1.2307,1.2311,1.2327,1.2327,1.2354,1.2338,1.2374,1.2357,1.2368,1.2374,1.2376,1.2379,1.2361,1.2389,1.2438,1.2443,1.238,1.238,1.2379,0,1.216,1.2199,1.2231,1.2241,1.2264,1.2279,1.2289,1.2306,1.232,1.234,1.2348,1.237,1.2382,1.2399,1.2405,1.2393,1.244,1.2425,1.2444,1.2443,1.2454,1.2453,1.2506,1.2462,1.2462,1.2462,1.2461,0,1.2205,1.2233,1.2244,1.2264,1.2294,1.2299,1.2329,1.2338,1.2353,1.2373,1.2372,1.2391,1.2398,1.2418,1.2422,1.2451,1.2456,1.246,1.2461,1.246,1.2459,1.2468,1.2465,1.2463,1.2463,1.2462,1.2462,0,1.2244,1.2253,1.2287,1.2306,1.2311,1.2332,1.2348,1.2366,1.2373,1.2399,1.2405,1.2417,1.244,1.2447,1.2475,1.2478,1.251,1.2509,1.2505,1.2505,1.2523,1.2521,1.2582,1.259,1.2541,1.2542,1.2542,0,1.2272,1.2293,1.2314,1.2327,1.2338,1.236,1.2374,1.238,1.2395,1.2416,1.2431,1.2454,1.2472,1.2509,1.2519,1.254,1.2539,1.2559,1.2542,1.254,1.2538,1.2537,1.2538,1.2562,1.2563,1.2563,1.2563,0,1.2321,1.2324,1.2344,1.2366,1.2383,1.24,1.2417,1.2428,1.2436,1.2452,1.2476,1.249,1.2518,1.254,1.2561,1.257,1.2568,1.2568,1.2574,1.2573,1.2569,1.257,1.2513,1.2567,1.2567,1.2566,1.2566,1.2566,1.2354,1.2372,1.2389,1.2412,1.2425,1.244,1.2458,1.2467,1.2487,1.251,1.2512,1.2537,1.2553,1.258,1.2591,1.261,1.2604,1.2612,1.2614,1.2615,1.2616,1.2566,1.2614,1.2613,1.2613,1.2613,1.2613,0,1.2402,1.2413,1.2434,1.2457,1.2474,1.247,1.2488,1.2503,1.2525,1.254,1.2558,1.2584,1.2605,1.2616,1.2637,1.265,1.2649,1.2655,1.2654,1.2656,1.2621,1.2614,1.2655,1.2655,1.2655,1.2655,1.2655,1.2655,1.2429,1.2459,1.2464,1.2499,1.251,1.2534,1.2545,1.2558,1.257,1.2599,1.2617,1.2624,1.2637,1.2658,1.2677,1.268,1.2687,1.2693,1.2695,1.2663,1.2658,1.2654,1.2648,1.2695,1.2695,1.2728,1.2729,1.2729]}]]